Satellite-Ground Cal/Val Site Overpasses Predictions

Prediction of Satellite NPP Overpassing Cal/Val Site: Antarctic Dome C

Ground Cal/Val Site Location: Latitude: -75.10, Longitude: 123.35; Satellite-Ground Site NADIR distance within 100 km.

Table of predicted overpasses for the next 14.0 days since TLE Epoch: 9/18/2020
Interval Starting Time Ending Time Minimum Distance Time Minimum Distance (km)
1 09/19/2020 14:36:24 09/19/2020 14:36:39 09/19/2020 14:36:32 84.95
2 09/20/2020 07:37:56 09/20/2020 07:38:24 09/20/2020 07:38:10 34.04
3 09/21/2020 07:19:11 09/21/2020 07:19:30 09/21/2020 07:19:21 76.01
4 09/23/2020 15:01:27 09/23/2020 15:01:50 09/23/2020 15:01:38 59.11
5 09/24/2020 14:42:36 09/24/2020 14:43:01 09/24/2020 14:42:49 50.10
6 09/25/2020 07:44:17 09/25/2020 07:44:38 09/25/2020 07:44:28 69.27
7 09/26/2020 07:25:25 09/26/2020 07:25:52 09/26/2020 07:25:38 38.67
8 09/28/2020 15:07:52 09/28/2020 15:07:59 09/28/2020 15:07:56 96.80
9 09/29/2020 14:48:52 09/29/2020 14:49:21 09/29/2020 14:49:06 14.71
